Regional Weather Roundup
Issued by NWS

Home | Current Version | Previous Version | Text Only | Print | Product List | Glossary On
Versions: 1 2 3 4 5 6 7 8 9 10 11 12 13 14 15 16 17 18 19 20 21 22 23 24 25 26 27 28 29 30 31 32 33 34 35 36
000
ASUS42 KTBW 271910
RWRFL
FLORIDA REGIONAL WEATHER ROUNDUP
NATIONAL WEATHER SERVICE TAMPA BAY RUSKIN FL
200 PM EST SAT DEC 27 2014

NOTE: "FAIR" INDICATES FEW OR NO CLOUDS BELOW 12,000 FEET WITH NO
SIGNIFICANT WEATHER AND/OR OBSTRUCTIONS TO VISIBILITY.


FLZ001>010-012>015-112-114-115-272000-
PANHANDLE FLORIDA

CITY           SKY/WX    TMP DP  RH WIND       PRES   REMARKS
PENSACOLA      CLOUDY    62  59  90 E7        30.14F
PENSACOLA NAS  LGT RAIN  67  63  87 E8        30.15F
MILTON NAS     LGT RAIN  60  55  83 N6        30.18S
CRESTVIEW      CLOUDY    65  52  62 S3        30.18F
DUKE FIELD     PTSUNNY   64  53  68 VRB6      30.17F
VALPARAISO     CLOUDY    62  56  83 SE9       30.17F
MARY ESTHER    CLOUDY    63  57  80 SE13      30.15F
PANAMA CITY    MOCLDY    68  54  60 SE9       30.16F
TYNDALL AFB    CLOUDY    72  67  83 SE6       30.17F
APALACHICOLA   SUNNY     71  58  63 E8        30.17F

STATION/POSITION SKY/WX   TEMP    WIND        PRES    WAVE   SWELL
                          AIR SEA DIR/SP/G            HT/PER HT/PER
                          (F)     (DEG/KT/KT) (MB)    (FT/S) (FT/S)
30.1N   87.6W              70 68  140/ 14/ 16 1019.5F   4/ 6   2/ 9
29.2N   88.2W              73 74  160/ 17/ 23 1019.4F   6/ 6
28.7N   86.0W              72 74  140/ 14/ 16 1021.3    3/ 5   2/ 8
PANAMA CITY BEAC           62 61  130/  4/  5 1021.3F
CAPE SAN BLAS    NOT AVBL
TOWER C                    62      90/  9/ 10 1021.7F
28.5N   84.5W              70 71  140/ 12/ 14 1021.5F   2/ 5

$$
FLZ011-016>038-118-127-128-134-139-239-272000-
NORTH FLORIDA

CITY           SKY/WX    TMP DP  RH WIND       PRES   REMARKS
MARIANNA       MOSUNNY   71  56  58 E5        30.18F
TALLAHASSEE    MOSUNNY   73  52  47 SE7       30.18F
PERRY          SUNNY     74  56  54 S7        30.19F
CROSS CITY       N/A     74  61  63 VRB3      30.18F
LAKE CITY      FAIR      72  61  68 CALM      30.19F
GAINESVILLE    SUNNY     75  62  64 VRB6      30.18F
MAYPORT NAS    MOSUNNY   68  62  81 N7        30.21F
JACKSONVILLE   PTSUNNY   73  62  68 E8        30.20F
JAX NAS        PTSUNNY   76  61  59 N5        30.20F
JAX CRAIG      MOSUNNY   71  62  73 NE8       30.21F
JAX CECIL      PTSUNNY   73  61  64 E6        30.20F
FERNANDINA BEA FAIR      72  63  73 NE9       30.20F
ST AUGUSTINE   PTSUNNY   71  64  78 NE8       30.21F

STATION/POSITION SKY/WX   TEMP    WIND        PRES    WAVE   SWELL
                          AIR SEA DIR/SP/G            HT/PER HT/PER
                          (F)     (DEG/KT/KT) (MB)    (FT/S) (FT/S)
SHELL POINT                63     180/  2/  3   N/A
KEATON BEACH               62     240/  5/  5 1022.1F
CEDAR KEY                  66     120/  4/  4 1023.1F
FERNANDINA                 63 60   20/  5/ 10 1022.6F
30.7N   81.3W                 61                N/A     2/ 5   2/13
MAYPORT                    65 62   40/  8/ 10   N/A
31.4N   80.9W              60 59   30/ 12/ 14 1023.4F   2/13   2/13
ST AUGUSTINE               64     360/  7/  8 1023.3F

$$
FLZ040-043>046-052-053-057-058-063-144-272000-
INTERIOR CENTRAL FLORIDA

CITY           SKY/WX    TMP DP  RH WIND       PRES   REMARKS
OCALA          PTSUNNY   75  63  64 NE7       30.19F
THE VILLAGES     N/A     77  66  69 NE3       30.09F
LEESBURG       SUNNY     79  65  62 S5        30.19F
SANFORD        PTSUNNY   81  65  58 MISG      30.17F
ORLANDO EXEC   MOSUNNY   80  66  62 S6        30.17F
ORLANDO INTL   PTSUNNY   79  66  64 CALM      30.17F
KISSIMMEE      MOSUNNY   81  68  65 SE5       30.18F
WINTER HAVEN   MOSUNNY   81  67  62 VRB3      30.18F
LAKELAND       PTSUNNY   79  66  65 CALM      30.17F
BARTOW         PTSUNNY   79  66  65 VRB5      30.18F
OKEECHOBEE     PTSUNNY   79  68  69 CALM      30.18F

$$
FLZ041-047-054-059-064-141-147-272000-
EAST CENTRAL FLORIDA

CITY           SKY/WX    TMP DP  RH WIND       PRES   REMARKS
DAYTONA BEACH  PTSUNNY   77  66  68 NE9       30.19F
DELAND         CLEAR    N/A N/A N/A E5        30.19F
NEW SMYRNA BEA MOSUNNY   77  66  69 NE8       30.19F
JFK SPACE CTR  PTSUNNY   80  69  67 SE6       30.18F
TITUSVILLE     MOSUNNY   79  70  73 NE7       30.18F
CAPE CANAVERAL CLOUDY    76  69  79 VRB6      30.17F
PATRICK AFB    PTSUNNY   76  71  84 E6        30.17F
MELBOURNE      PTSUNNY   78  70  76 E6        30.17F
VERO BEACH     MOSUNNY   80  68  66 E6        30.17F
FT PIERCE      MOSUNNY   80  70  71 NE6       30.16F
STUART         PTSUNNY   77  70  78 NE8       30.20S

STATION/POSITION SKY/WX   TEMP    WIND        PRES    WAVE   SWELL
                          AIR SEA DIR/SP/G            HT/PER HT/PER
                          (F)     (DEG/KT/KT) (MB)    (FT/S) (FT/S)
28.5N   80.2W              76 76  100/  4/  6 1022.4F
28.9N   78.5W              73 77   70/ 12/ 14 1022.5F   3/15   2/15
TRIDENT PIER               79 67   90/  4/  5 1021.6F
28.4N   80.5W                 70                N/A     2/13
27.6N   80.2W                 75                N/A     3/13   2/13

$$
FLZ050-056-061-142-242-148-248-149-249-151-251-155-255-
160-260-272000-
WEST CENTRAL FLORIDA

CITY           SKY/WX    TMP DP  RH WIND       PRES   REMARKS
CRYSTAL RIVER  FAIR      79  61  53 SE3       30.17F
INVERNESS      FAIR      81  63  54 E5        30.18F
BROOKSVILLE    MOSUNNY   80  66  62 S5        30.17F
ZEPHYRHILLS    FAIR      81  63  54 S3        30.18F
CLEARWATER     MOSUNNY   79  67  66 SE9       30.17F
TAMPA INTL     PTSUNNY   76  66  71 SW7       30.17F
TAMPA EXEC     MOSUNNY   82  68  61 SE3       30.17F
PLANT CITY     SUNNY     82  66  57 SW3       30.19F
MACDILL AFB    SUNNY     82  71  69 E7        30.17F
PETER O KNIGHT SUNNY     81  70  69 SW3       30.17F
ST PETERSBURG  SUNNY     76  66  71 S5        30.15F
SARASOTA       MOSUNNY   76  67  73 VRB6      30.15F
VENICE         FAIR      73  68  83 SW7       30.18F

STATION/POSITION SKY/WX   TEMP    WIND        PRES    WAVE   SWELL
                          AIR SEA DIR/SP/G            HT/PER HT/PER
                          (F)     (DEG/KT/KT) (MB)    (FT/S) (FT/S)
CEDAR KEY                  66     120/  4/  4 1023.1F
28.5N   84.5W              70 71  140/ 12/ 14 1021.5F   2/ 5
27.3N   84.3W                 75                N/A     2/ 4
CLEARWATER BEACH           70 66  230/  6/  8 1021.5F
MIDDLE TAMPA BAY           70     350/  3/  4 1021.9F
VENICE                     71 67  230/  5/  5 1021.2F

$$
FLZ066-069-070-075>078-162-262-165-265-272000-
SOUTHWEST FLORIDA AND KEYS

CITY           SKY/WX    TMP DP  RH WIND       PRES   REMARKS
PUNTA GORDA    PTSUNNY   79  68  69 VRB6      30.18F
FT MYERS       CLOUDY    79  67  66 CALM      30.16F
SOUTHWEST INTL CLOUDY    78  68  71 VRB3      30.17F
NAPLES         CLOUDY    79  69  71 SE5       30.16F
MARCO ISLAND   PTCLDY    79  70  73 E6        30.16F
MARATHON       PTSUNNY   81  69  67 VRB7      30.15F
KEY WEST NAS   CLOUDY    79  68  69 E15       30.15F
KEY WEST INTL  CLOUDY    79  69  71 E13       30.15F

STATION/POSITION SKY/WX   TEMP    WIND        PRES    WAVE   SWELL
                          AIR SEA DIR/SP/G            HT/PER HT/PER
                          (F)     (DEG/KT/KT) (MB)    (FT/S) (FT/S)
VENICE                     71 67  230/  5/  5 1021.2F
NAPLES                     74 76  240/  3/  4 1021.9F
26.0N   85.6W              74 74  100/ 12/ 16 1020.2F   3/ 6   2/ 7
DRY TORTUGAS               70      80/ 12/ 13 1021.4F
NW FL BAY                  75      90/  8/  8 1022.6F
SAND KEY                   77      90/ 15/ 17 1020.7F
SOMBRERO KEY               78     100/ 14/ 15 1021.4F
LONG KEY                   76 75   80/  8/  9 1022.4F
MOLASSES REEF              76 78  110/ 10/ 11 1021.1F

$$
FLZ067-068-071>074-168-172>174-272000-
SOUTHEAST FLORIDA

CITY           SKY/WX    TMP DP  RH WIND       PRES   REMARKS
W PALM BEACH   PTSUNNY   81  69  67 SE7       30.16F
FT LAUDER-EXEC PTSUNNY   81  67  62 E9        30.16F
FT LAUDERDALE  PTSUNNY   77  66  68 SE8       30.16F
POMPANO BEACH  PTSUNNY   81  68  64 SE9       30.17F
PEMBROKE PINES PTSUNNY   81  65  58 E7        30.17F
OPA LOCKA      PTSUNNY   82  63  52 SE8       30.17F
MIAMI          PTSUNNY   80  66  62 SE8       30.16F
WEST KENDALL   PTSUNNY   80  65  59 SE6       30.16F
HOMESTEAD      CLOUDY    78  68  71 E5        30.16F

STATION/POSITION SKY/WX   TEMP    WIND        PRES    WAVE   SWELL
                          AIR SEA DIR/SP/G            HT/PER HT/PER
                          (F)     (DEG/KT/KT) (MB)    (FT/S) (FT/S)
PORT EVERGLADES            78     140/  4/  6 1021.6
VIRGINIA KEY               77 75  130/  5/  6 1022.0F
LAKE WORTH                 76 77  170/  8/  9 1021.3F
FOWEY ROCKS                76 77  120/  7/  8 1022.3F
SETTLEMENT POINT           76      40/  2/  3 1022.3F

$$



USA.gov is the U.S. government's official web portal to all federal, state and local government web resources and services.